• Join FlightAware (Why Join?)
  • Login
  • US Flag 
02:36AM EST


 

Airport Tracker/Info


-or-


 

Live Flight TrackerFlight Track Log ✈ SWA1969 ✈ 2013年 04月 24日 ✈ KMDW - KPHX

Flight Track Log - Related Links

Times and Time Zones

All times are in EDT time to prevent confusion due to time zone crossing. See the SWA1969 flight status page for this flight to view local times or setup timezone preferences in your user account.

Time Position Orientation Groundspeed Altitude Reporting Facility
EDT Latitude Longitude Course Direction KTS MPH feet Rate Location/Type
01:30PM 41.7833 -87.8167 257° West 199 229 2,700  Level Chicago TRACON
01:32PM 41.7625 -87.9394 257° West 223 257 4,000 479 Climbing Chicago Center
01:33PM 41.7536 -88.0442 264° West 246 283 4,000 387 Level Chicago Center
01:34PM 41.7708 -88.1303 285° West 245 282 4,800 960 Climbing Chicago Center
01:35PM 41.7892 -88.2175 286° West 245 282 6,000 2,112 Climbing Chicago Center
01:36PM 41.8003 -88.3111 279° West 266 306 9,200 2,855 Climbing Chicago Center
01:37PM 41.8061 -88.4089 275° West 265 305 11,900 1,742 Climbing Chicago Center
01:38PM 41.7978 -88.5339 265° West 294 338 12,800 1,306 Climbing Chicago Center
01:39PM 41.7719 -88.6547 254° West 332 382 14,600 2,081 Climbing Chicago Center
01:40PM 41.7442 -88.7850 254° West 358 412 17,100 2,177 Climbing Chicago Center
01:41PM 41.7139 -88.9181 253° West 374 430 19,100 2,081 Climbing Chicago Center
01:42PM 41.6839 -89.0539 254° West 383 441 21,400 2,226 Climbing Chicago Center
01:43PM 41.6464 -89.2175 253° West 385 443 23,700 1,839 Climbing Chicago Center
01:44PM 41.6161 -89.3600 254° West 396 456 25,200 1,403 Climbing Chicago Center
01:45PM 41.5833 -89.5042 253° West 406 467 26,600 1,548 Climbing Chicago Center
01:46PM 41.5500 -89.6567 254° West 413 475 28,400 1,694 Climbing Chicago Center
01:47PM 41.5181 -89.7992 253° West 405 466 30,100 1,500 Climbing Chicago Center
01:48PM 41.4861 -89.9364 253° West 390 449 31,500 1,210 Climbing Chicago Center
01:49PM 41.4467 -90.1061 253° West 399 459 32,600 1,258 Climbing Chicago Center
01:50PM 41.4144 -90.2458 253° West 396 456 34,100 1,306 Climbing Chicago Center
01:51PM 41.3831 -90.3797 253° West 383 441 35,300 919 Climbing Chicago Center
01:52PM 41.3517 -90.5122 253° West 378 435 36,000 341 Climbing Chicago Center
01:53PM 41.3189 -90.6467 252° West 390 449 36,000  Level Chicago Center
01:54PM 41.2803 -90.7781 249° West 384 442 36,000  Level Chicago Center
01:55PM 41.2336 -90.9342 248° West 380 437 36,000  Level Chicago Center
01:57PM 41.1947 -91.0656 249° West 384 442 36,000  Level Chicago Center
01:58PM 41.1569 -91.1961 249° West 382 440 36,000  Level Chicago Center
01:59PM 41.1172 -91.3267 248° West 383 441 36,000  Level Chicago Center
02:00PM 41.0778 -91.4569 248° West 381 438 36,000  Level Chicago Center
02:01PM 41.0383 -91.5875 248° West 382 440 36,000  Level Chicago Center
02:02PM 40.9950 -91.7303 248° West 379 436 36,000  Level Chicago Center
02:03PM 40.9556 -91.8589 248° West 380 437 36,000  Level Chicago Center
02:04PM 40.9164 -91.9861 248° West 378 435 36,000  Level Chicago Center
02:05PM 40.8694 -92.1392 248° West 378 435 36,000  Level Chicago Center
02:06PM 40.8294 -92.2658 247° West 377 434 36,000  Level Chicago Center
02:07PM 40.7906 -92.3931 248° West 378 435 36,000  Level Chicago Center
02:08PM 40.7503 -92.5197 247° West 380 437 36,000  Level Chicago Center
02:09PM 40.7089 -92.6469 247° West 382 440 36,000  Level Chicago Center
02:10PM 40.6614 -92.7992 248° West 380 437 36,000  Level Chicago Center
02:11PM 40.6222 -92.9239 248° West 376 433 36,000  Level Chicago Center
02:12PM 40.5819 -93.0467 247° West 372 428 36,000  Level Chicago Center
02:13PM 40.5422 -93.1711 247° West 374 430 36,000  Level Chicago Center
02:14PM 40.5028 -93.2950 247° West 371 427 36,000  Level Chicago Center
02:15PM 40.4539 -93.4450 247° West 374 430 36,000  Level Chicago Center
02:16PM 40.4139 -93.5706 247° West 376 433 36,000  Level Chicago Center
02:17PM 40.3719 -93.6947 246° West 376 433 36,000  Level Chicago Center
02:18PM 40.3317 -93.8211 247° West 379 436 36,000  Level Chicago Center
02:19PM 40.2808 -93.9717 246° West 380 437 36,000  Level Kansas City Center
02:20PM 40.2328 -94.1178 247° West 380 437 36,000  Level Kansas City Center
02:21PM 40.1914 -94.2364 245° Southwest 378 435 36,000  Level Kansas City Center
02:22PM 40.1447 -94.3750 246° West 374 430 36,000  Level Kansas City Center
02:24PM 40.1056 -94.4933 247° West 373 429 36,000  Level Kansas City Center
02:25PM 40.0603 -94.6289 246° West 366 421 36,000  Level Kansas City Center
02:26PM 40.0211 -94.7439 246° West 365 420 36,000  Level Kansas City Center
02:27PM 39.9756 -94.8772 246° West 361 415 36,000  Level Kansas City Center
02:28PM 39.9356 -94.9914 245° Southwest 363 418 36,000  Level Kansas City Center
02:29PM 39.8858 -95.1228 244° Southwest 364 419 36,000  Level Kansas City Center
02:30PM 39.8444 -95.2378 245° Southwest 367 422 36,000  Level Kansas City Center
02:31PM 39.7944 -95.3703 244° Southwest 367 422 36,000  Level Kansas City Center
02:32PM 39.7522 -95.4836 244° Southwest 366 421 36,000  Level Kansas City Center
02:33PM 39.7033 -95.6158 244° Southwest 365 420 36,000  Level Kansas City Center
02:34PM 39.6622 -95.7292 245° Southwest 365 420 36,000  Level Kansas City Center
02:35PM 39.6128 -95.8622 244° Southwest 370 426 36,000  Level Kansas City Center
02:36PM 39.5722 -95.9756 245° Southwest 364 419 36,000  Level Kansas City Center
02:37PM 39.5233 -96.1067 244° Southwest 363 418 36,000  Level Kansas City Center
02:38PM 39.4819 -96.2158 244° Southwest 359 413 36,000  Level Kansas City Center
02:39PM 39.4397 -96.3308 245° Southwest 355 409 36,000  Level Kansas City Center
02:40PM 39.3964 -96.4439 244° Southwest 351 404 36,000  Level Kansas City Center
02:41PM 39.3467 -96.5792 245° Southwest 350 403 36,000  Level Kansas City Center
02:42PM 39.3058 -96.6864 244° Southwest 348 400 36,000  Level Kansas City Center
02:43PM 39.2667 -96.7950 245° Southwest 347 399 36,000  Level Kansas City Center
02:44PM 39.2172 -96.9208 243° Southwest 352 405 36,000  Level Kansas City Center
02:45PM 39.1761 -97.0286 244° Southwest 350 403 36,000  Level Kansas City Center
02:46PM 39.1283 -97.1547 244° Southwest 350 403 36,000  Level Kansas City Center
02:47PM 39.0900 -97.2625 245° Southwest 347 399 36,000  Level Kansas City Center
02:48PM 39.0425 -97.3844 243° Southwest 343 395 36,000  Level Kansas City Center
02:49PM 39.0025 -97.4881 244° Southwest 339 390 36,000  Level Kansas City Center
02:50PM 38.9569 -97.6078 244° Southwest 334 384 36,000  Level Kansas City Center
02:51PM 38.9175 -97.7081 243° Southwest 330 380 36,000  Level Kansas City Center
02:52PM 38.8719 -97.8231 243° Southwest 324 373 36,000  Level Kansas City Center
02:54PM 38.8367 -97.9117 243° Southwest 324 373 36,000  Level Kansas City Center
02:55PM 38.7894 -98.0339 244° Southwest 319 367 36,000  Level Kansas City Center
02:56PM 38.7492 -98.1344 243° Southwest 319 367 36,000  Level Kansas City Center
02:57PM 38.7097 -98.2367 244° Southwest 321 369 36,000  Level Kansas City Center
02:58PM 38.6683 -98.3383 242° Southwest 322 371 36,000  Level Kansas City Center
02:59PM 38.6283 -98.4411 244° Southwest 324 373 36,000  Level Kansas City Center
03:00PM 38.5872 -98.5433 243° Southwest 325 374 36,000  Level Kansas City Center
03:01PM 38.5381 -98.6664 243° Southwest 326 375 36,000  Level Kansas City Center
03:02PM 38.4967 -98.7706 243° Southwest 329 379 36,000  Level Kansas City Center
03:03PM 38.4547 -98.8742 243° Southwest 330 380 36,000  Level Kansas City Center
03:04PM 38.4125 -98.9783 243° Southwest 331 381 36,000  Level Kansas City Center
03:05PM 38.3703 -99.0814 242° Southwest 330 380 36,000  Level Kansas City Center
03:06PM 38.3283 -99.1844 243° Southwest 329 379 36,000  Level Kansas City Center
03:07PM 38.2764 -99.3092 242° Southwest 332 382 36,000  Level Kansas City Center
03:08PM 38.2333 -99.4122 242° Southwest 332 382 36,000  Level Kansas City Center
03:09PM 38.1875 -99.5275 243° Southwest 329 379 36,000  Level Kansas City Center
03:10PM 38.1472 -99.6267 243° Southwest 329 379 36,000  Level Kansas City Center
03:11PM 38.1050 -99.7239 241° Southwest 329 379 36,000  Level Kansas City Center
03:12PM 38.0578 -99.8394 243° Southwest 330 380 36,000  Level Kansas City Center
03:13PM 38.0158 -99.9403 242° Southwest 335 386 36,000  Level Kansas City Center
03:14PM 37.9681 -100.0558 242° Southwest 333 383 36,000  Level Kansas City Center
03:15PM 37.9258 -100.1572 242° Southwest 337 388 36,000  Level Kansas City Center
03:16PM 37.8767 -100.2733 242° Southwest 335 386 36,000  Level Kansas City Center
03:17PM 37.8333 -100.3739 241° Southwest 338 389 36,000  Level Kansas City Center
03:18PM 37.7828 -100.4906 241° Southwest 339 390 36,000  Level Kansas City Center
03:19PM 37.7442 -100.5819 242° Southwest 340 391 36,000  Level Kansas City Center
03:20PM 37.6908 -100.7064 242° Southwest 337 388 36,000  Level Kansas City Center
03:21PM 37.6456 -100.8111 241° Southwest 337 388 36,000  Level Kansas City Center
03:22PM 37.6008 -100.9161 242° Southwest 338 389 36,000  Level Kansas City Center
03:23PM 37.5528 -101.0247 241° Southwest 346 398 36,000  Level Kansas City Center
03:24PM 37.5072 -101.1292 241° Southwest 343 395 36,000  Level Kansas City Center
03:26PM 37.4606 -101.2381 242° Southwest 346 398 36,000  Level Kansas City Center
03:27PM 37.4078 -101.3586 241° Southwest 350 403 36,000  Level Kansas City Center
03:28PM 37.3625 -101.4608 241° Southwest 351 404 36,000  Level Kansas City Center
03:29PM 37.3100 -101.5803 241° Southwest 349 402 36,000  Level Kansas City Center
03:30PM 37.2647 -101.6825 241° Southwest 350 403 36,000  Level Kansas City Center
03:31PM 37.2119 -101.8022 241° Southwest 350 403 36,000  Level Kansas City Center
03:32PM 37.1664 -101.9053 241° Southwest 352 405 36,000  Level Kansas City Center
03:33PM 37.1128 -102.0236 240° Southwest 351 404 36,000  Level Kansas City Center
03:34PM 37.0672 -102.1267 241° Southwest 353 406 36,000  Level Kansas City Center
03:35PM 37.0136 -102.2464 241° Southwest 353 406 36,000  Level Kansas City Center
03:35PM 37.0064 -102.2636 242° Southwest 353 406 36,000  Level Albuquerque Center
03:36PM 36.9619 -102.3872 246° West 348 400 36,000  Level Albuquerque Center
03:37PM 36.9344 -102.4969 253° West 347 399 36,000  Level Albuquerque Center
03:38PM 36.8997 -102.6244 251° West 347 399 36,000  Level Albuquerque Center
03:39PM 36.8736 -102.7308 253° West 350 403 36,000  Level Albuquerque Center
03:40PM 36.8428 -102.8467 252° West 350 403 36,000  Level Albuquerque Center
03:41PM 36.8067 -102.9819 252° West 351 404 36,000  Level Albuquerque Center
03:42PM 36.7756 -103.0964 251° West 348 400 36,000  Level Albuquerque Center
03:43PM 36.7450 -103.2131 252° West 349 402 36,000  Level Albuquerque Center
03:44PM 36.7144 -103.3275 252° West 348 400 36,000  Level Albuquerque Center
03:45PM 36.6836 -103.4428 252° West 348 400 36,000  Level Albuquerque Center
03:46PM 36.6517 -103.5578 251° West 349 402 36,000  Level Albuquerque Center
03:47PM 36.6197 -103.6719 251° West 348 400 36,000  Level Albuquerque Center
03:48PM 36.5836 -103.8078 252° West 350 403 36,000  Level Albuquerque Center
03:50PM 36.5514 -103.9236 251° West 352 405 36,000  Level Albuquerque Center
03:51PM 36.5197 -104.0392 251° West 352 405 36,000  Level Albuquerque Center
03:52PM 36.4867 -104.1575 251° West 356 410 36,000  Level Albuquerque Center
03:53PM 36.4528 -104.2783 251° West 363 418 36,000  Level Albuquerque Center
03:54PM 36.4197 -104.3967 251° West 363 418 36,000  Level Albuquerque Center
03:55PM 36.3864 -104.5156 251° West 362 417 36,000  Level Albuquerque Center
03:56PM 36.3475 -104.6514 250° West 359 413 36,000  Level Albuquerque Center
03:57PM 36.3144 -104.7681 251° West 358 412 36,000  Level Albuquerque Center
03:58PM 36.2817 -104.8844 251° West 357 411 36,000  Level Albuquerque Center
03:59PM 36.2478 -105.0019 250° West 359 413 36,000  Level Albuquerque Center
04:00PM 36.2147 -105.1175 251° West 356 410 36,000  Level Albuquerque Center
04:01PM 36.1817 -105.2314 250° West 352 405 36,000  Level Albuquerque Center
04:02PM 36.1486 -105.3450 250° West 350 403 36,000  Level Albuquerque Center
04:03PM 36.1100 -105.4772 250° West 348 400 36,000  Level Albuquerque Center
04:04PM 36.0800 -105.5794 250° West 345 397 36,000  Level Albuquerque Center
04:05PM 36.0475 -105.6911 250° West 345 397 36,000  Level Albuquerque Center
04:06PM 36.0147 -105.8033 250° West 346 398 36,000  Level Albuquerque Center
04:07PM 35.9819 -105.9139 250° West 345 397 36,000  Level Albuquerque Center
04:08PM 35.9428 -106.0483 250° West 347 399 36,000  Level Albuquerque Center
04:09PM 35.9078 -106.1631 249° West 355 409 36,000  Level Albuquerque Center
04:10PM 35.8731 -106.2847 251° West 360 414 36,000  Level Albuquerque Center
04:11PM 35.8411 -106.3917 250° West 352 405 36,000  Level Albuquerque Center
04:12PM 35.8036 -106.5144 249° West 345 397 36,000  Level Albuquerque Center
04:13PM 35.7719 -106.6192 250° West 342 394 36,000  Level Albuquerque Center
04:14PM 35.7347 -106.7436 250° West 345 397 36,000  Level Albuquerque Center
04:15PM 35.6994 -106.8511 248° West 351 404 36,000  Level Albuquerque Center
04:16PM 35.6619 -106.9775 250° West 352 405 36,000  Level Albuquerque Center
04:17PM 35.6300 -107.0803 249° West 356 410 36,000  Level Albuquerque Center
04:18PM 35.5894 -107.2169 250° West 360 414 36,000  Level Albuquerque Center
04:19PM 35.5536 -107.3281 248° West 363 418 36,000  Level Albuquerque Center
04:21PM 35.5136 -107.4556 249° West 360 414 36,000  Level Albuquerque Center
04:22PM 35.4792 -107.5647 249° West 358 412 36,000  Level Albuquerque Center
04:23PM 35.4447 -107.6750 249° West 361 415 36,000 -96 Level Albuquerque Center
04:24PM 35.4044 -107.8014 249° West 358 412 35,800 -532 Descending Albuquerque Center
04:25PM 35.3708 -107.9119 250° West 359 413 34,900 -871 Descending Albuquerque Center
04:26PM 35.3286 -108.0425 248° West 365 420 34,000 -435 Descending Albuquerque Center
04:27PM 35.2931 -108.1556 249° West 368 423 34,000  Level Albuquerque Center
04:28PM 35.2506 -108.2869 248° West 371 427 34,000  Level Albuquerque Center
04:29PM 35.2133 -108.4014 248° West 374 430 34,000  Level Albuquerque Center
04:30PM 35.1706 -108.5342 249° West 375 432 34,000  Level Albuquerque Center
04:31PM 35.1331 -108.6497 248° West 378 435 34,000  Level Albuquerque Center
04:32PM 35.0897 -108.7833 248° West 378 435 34,000  Level Albuquerque Center
04:33PM 35.0528 -108.8972 248° West 378 435 34,000  Level Albuquerque Center
04:34PM 35.0139 -109.0106 247° West 377 434 34,000  Level Albuquerque Center
04:35PM 34.9706 -109.1456 249° West 379 436 34,000  Level Albuquerque Center
04:36PM 34.9306 -109.2586 247° West 379 436 34,000  Level Albuquerque Center
04:37PM 34.8814 -109.3900 246° West 381 438 34,000  Level Albuquerque Center
04:38PM 34.8403 -109.5000 246° West 376 433 34,000  Level Albuquerque Center
04:39PM 34.7919 -109.6283 245° Southwest 371 427 34,000  Level Albuquerque Center
04:40PM 34.7508 -109.7406 246° West 377 434 34,000  Level Albuquerque Center
04:41PM 34.7025 -109.8731 246° West 382 440 34,000  Level Albuquerque Center
04:42PM 34.6603 -109.9869 246° West 385 443 34,000  Level Albuquerque Center
04:43PM 34.6103 -110.1239 246° West 397 457 34,000  Level Albuquerque Center
04:44PM 34.5694 -110.2403 247° West 394 453 34,000 -242 Level Albuquerque Center
04:45PM 34.5247 -110.3450 243° Southwest 370 426 33,500 -1,452 Descending Albuquerque Center
04:46PM 34.4861 -110.4597 248° West 364 419 31,000 -2,081 Descending Albuquerque Center
04:47PM 34.4458 -110.5672 246° West 354 407 29,200 -1,935 Descending Albuquerque Center
04:48PM 34.3978 -110.6906 245° Southwest 341 392 27,000 -1,887 Descending Albuquerque Center
04:49PM 34.3550 -110.7883 242° Southwest 332 382 25,300 -1,645 Descending Albuquerque Center
04:50PM 34.2950 -110.8722 229° Southwest 330 380 23,600 -1,632 Descending Albuquerque Center
04:52PM 34.2317 -110.9544 227° Southwest 334 384 21,900 -1,694 Descending Albuquerque Center
04:53PM 34.1697 -111.0342 227° Southwest 329 379 20,100 -1,742 Descending Albuquerque Center
04:54PM 34.1108 -111.1108 227° Southwest 318 366 18,300 -1,872 Descending Albuquerque Center
04:55PM 34.0386 -111.2028 227° Southwest 314 361 16,200 -1,839 Descending Albuquerque Center
04:56PM 33.9800 -111.2781 227° Southwest 310 357 14,500 -1,500 Descending Albuquerque Center
04:57PM 33.9219 -111.3539 227° Southwest 306 352 13,100 -968 Descending Albuquerque Center
04:58PM 33.8669 -111.4183 224° Southwest 275 316 12,500 -677 Descending Albuquerque Center
04:59PM 33.8122 -111.4644 215° Southwest 243 280 11,700 -968 Descending Albuquerque Center
05:00PM 33.7594 -111.5094 215° Southwest 234 269 10,500 -1,161 Descending Albuquerque Center
05:01PM 33.7072 -111.5556 216° Southwest 231 266 9,300 -1,210 Descending Albuquerque Center
05:02PM 33.6447 -111.6092 216° Southwest 231 266 8,000 -1,210 Descending Albuquerque Center
05:03PM 33.5919 -111.6519 214° Southwest 229 264 6,800 -1,065 Descending Albuquerque Center
05:04PM 33.5414 -111.6983 217° Southwest 227 261 5,800 -919 Descending Albuquerque Center
05:05PM 33.4969 -111.7506 224° Southwest 225 259 4,900 -823 Descending Albuquerque Center
05:06PM 33.4686 -111.8147 242° Southwest 219 252 4,100 -968 Descending Albuquerque Center
05:07PM 33.4422 -111.8758 243° Southwest 207 238 2,900 -1,016 Descending Albuquerque Center
05:08PM 33.4408 -111.9339 268° West 181 208 2,000 -823 Descending Albuquerque Center
05:09PM 33.4403 -111.9892 269° West 161 185 1,200 -774 Descending Albuquerque Center
05:11PM 33.4343 -112.0116 270° West  Level Estimated